La Porte, IN

7:06 PM CST on February 27, 2017 (GMT -0600)
La Porte Municipal

Weather History for KPPO - January, 2014

Change the Weather History Date:

Wednesday, January 8, 2014

  Actual Average (KSBN) Record (KSBN)
Temperature  
Mean Temperature 2 °F -  
Max Temperature 15 °F 28 °F 61 °F (1965)
Min Temperature -10 °F 12 °F -16 °F (1912)
Degree Days  
Heating Degree Days 62    
Moisture  
Dew Point -4 °F    
Average Humidity 81    
Maximum Humidity 88    
Minimum Humidity 71    
Precipitation  
Precipitation 0.00 in - - ()
Sea Level Pressure  
Sea Level Pressure 30.38 in    
Wind  
Wind Speed 0 mph (WNW)    
Max Wind Speed 6 mph    
Max Gust Speed -    
Visibility 9 miles    
Events      
Averages and records for this station are not official NWS values.
T = Trace of Precipitation, MM = Missing Value Source: NWS Daily Summary

Daily Weather History Graph

Daily Weather History Graph

Search for Another Location

Airport or City:

Trip Planner

Search our weather history database for the weather conditions in past years. The results will help you decide how hot, cold, wet, or windy it might be!

Date:

Astronomy

Jan. 08, 2014 Rise Set
Actual Time 7:13 AM CST 4:34 PM CST
Civil Twilight 6:42 AM CST 5:05 PM CST
Nautical Twilight 6:07 AM CST 5:39 PM CST
Astronomical Twilight 5:34 AM CST 6:13 PM CST
Moon 11:29 AM CST (1/8) 12:15 AM CST (1/8)
Length of Visible Light 10h 22m
Length of Day
9h 20m
First Quarter, 56% of the Moon is Illuminated
Jan 8
First Quarter
Jan 15
Full
Jan 23
Last Quarter
Jan 30
New
Feb 6
First Quarter

Hourly Weather History & Observations

Time (CST) Temp. Windchill Dew Point Humidity Pressure Visibility Wind Dir Wind Speed Gust Speed Precip Events Conditions
12:15 AM -10.1 °F - -14.8 °F 80% 30.28 in 10.0 mi Calm Calm - N/A   Clear
12:35 AM -9.6 °F - -14.4 °F 79% 30.28 in 10.0 mi Calm Calm - N/A   Clear
12:55 AM -7.4 °F - -11.7 °F 81% 30.29 in 10.0 mi Calm Calm - N/A   Clear
1:15 AM -5.1 °F - -8.9 °F 84% 30.29 in 10.0 mi Calm Calm - N/A   Clear
1:35 AM -7.8 °F - -12.6 °F 79% 30.29 in 10.0 mi Calm Calm - N/A   Clear
1:55 AM -9.2 °F - -14.1 °F 79% 30.31 in 10.0 mi Calm Calm - N/A   Clear
2:15 AM -7.6 °F - -11.9 °F 81% 30.31 in 10.0 mi Calm Calm - N/A   Clear
2:35 AM -10.5 °F - -15.5 °F 78% 30.31 in 10.0 mi Calm Calm - N/A   Clear
2:55 AM -8.5 °F - -13.0 °F 81% 30.31 in 10.0 mi Calm Calm - N/A   Clear
3:15 AM -8.9 °F - -13.9 °F 79% 30.31 in 10.0 mi Calm Calm - N/A   Clear
3:35 AM -6.7 °F - -11.2 °F 81% 30.31 in 10.0 mi Calm Calm - N/A   Clear
3:55 AM -8.3 °F - -13.0 °F 80% 30.30 in 10.0 mi Calm Calm - N/A   Scattered Clouds
4:15 AM -5.8 °F - -10.1 °F 82% 30.30 in 10.0 mi Calm Calm - N/A   Scattered Clouds
4:35 AM -10.3 °F - -15.2 °F 79% 30.30 in 10.0 mi Calm Calm - N/A   Mostly Cloudy
4:55 AM -6.3 °F - -10.7 °F 82% 30.30 in 10.0 mi Calm Calm - N/A   Scattered Clouds
5:15 AM -5.4 °F - -9.6 °F 82% 30.30 in 10.0 mi Calm Calm - N/A   Scattered Clouds
5:35 AM -8.7 °F - -13.5 °F 79% 30.30 in 10.0 mi Calm Calm - N/A   Scattered Clouds
5:55 AM -8.1 °F - -13.0 °F 79% 30.30 in 10.0 mi Calm Calm - N/A   Scattered Clouds
6:15 AM -8.7 °F - -13.7 °F 79% 30.31 in 10.0 mi Calm Calm - N/A   Scattered Clouds
6:35 AM -9.4 °F - -14.3 °F 79% 30.32 in 10.0 mi Calm Calm - N/A   Scattered Clouds
6:55 AM -9.8 °F - -14.8 °F 78% 30.33 in 10.0 mi Calm Calm - N/A   Mostly Cloudy
7:15 AM -9.4 °F - -14.4 °F 78% 30.33 in 10.0 mi Calm Calm - N/A   Scattered Clouds
7:35 AM -8.9 °F - -13.9 °F 79% 30.34 in 10.0 mi Calm Calm - N/A   Clear
7:55 AM -8.9 °F - -13.7 °F 79% 30.34 in 10.0 mi Calm Calm - N/A   Clear
8:15 AM -6.9 °F - -11.7 °F 79% 30.36 in 10.0 mi Calm Calm - N/A   Clear
8:35 AM -3.8 °F - -7.8 °F 83% 30.36 in 10.0 mi Calm Calm - N/A   Clear
8:55 AM -1.5 °F - -5.4 °F 83% 30.37 in 10.0 mi Calm Calm - N/A   Clear
9:15 AM 1.9 °F - -1.7 °F 85% 30.37 in 4.0 mi Calm Calm - N/A   Scattered Clouds
9:35 AM 4.1 °F - 0.5 °F 85% 30.38 in 10.0 mi Calm Calm - N/A   Scattered Clouds
9:55 AM 4.8 °F - 1.4 °F 86% 30.38 in 10.0 mi Calm Calm - N/A   Scattered Clouds
10:15 AM 5.9 °F - 2.5 °F 86% 30.39 in 10.0 mi Calm Calm - N/A   Scattered Clouds
10:35 AM 6.8 °F - 3.7 °F 87% 30.39 in 10.0 mi Calm Calm - N/A   Clear
10:55 AM 7.0 °F - 3.9 °F 87% 30.38 in 10.0 mi Calm Calm - N/A   Scattered Clouds
11:15 AM 8.2 °F - 5.2 °F 87% 30.37 in 10.0 mi Calm Calm - N/A   Clear
11:35 AM 8.6 °F - 5.7 °F 88% 30.37 in 10.0 mi Calm Calm - N/A   Clear
11:55 AM 8.8 °F - 5.9 °F 88% 30.36 in 10.0 mi Calm Calm - N/A   Scattered Clouds
12:15 PM 9.5 °F 3.0 °F 6.6 °F 88% 30.36 in 10.0 mi West 3.5 mph - N/A   Clear
12:35 PM 9.9 °F - 6.6 °F 87% 30.36 in 10.0 mi Calm Calm - N/A   Clear
12:50 PM 11.7 °F - 7.2 °F 82% 30.35 in 10.0 mi Calm Calm - N/A   Clear
1:15 PM 13.1 °F - 5.4 °F 71% 30.35 in 10.0 mi Calm Calm - N/A   Clear
1:35 PM 13.5 °F - 5.9 °F 72% 30.36 in 10.0 mi Calm Calm - N/A   Scattered Clouds
1:55 PM 13.1 °F 7.1 °F 5.9 °F 73% 30.36 in 10.0 mi SW 3.5 mph - N/A   Clear
2:15 PM 14.9 °F 6.1 °F 7.0 °F 71% 30.37 in 10.0 mi West 5.8 mph - N/A   Clear
2:35 PM 15.6 °F 8.3 °F 8.1 °F 72% 30.38 in 10.0 mi WNW 4.6 mph - N/A   Clear
2:55 PM 15.8 °F 10.2 °F 8.2 °F 72% 30.39 in 10.0 mi NW 3.5 mph - N/A   Clear
3:15 PM 15.6 °F 10.0 °F 8.6 °F 74% 30.40 in 10.0 mi NW 3.5 mph - N/A   Scattered Clouds
3:35 PM 15.4 °F 9.8 °F 8.4 °F 74% 30.41 in 10.0 mi NW 3.5 mph - N/A   Scattered Clouds
3:55 PM 14.9 °F 9.2 °F 8.1 °F 74% 30.41 in 10.0 mi NW 3.5 mph - N/A   Scattered Clouds
4:15 PM 14.0 °F 8.2 °F 7.7 °F 76% 30.41 in 10.0 mi NW 3.5 mph - N/A   Scattered Clouds
4:35 PM 13.1 °F 7.1 °F 7.0 °F 77% 30.41 in 10.0 mi NW 3.5 mph - N/A   Scattered Clouds
4:55 PM 12.7 °F - 6.8 °F 77% 30.42 in 10.0 mi Calm Calm - N/A   Scattered Clouds
5:15 PM 12.0 °F 4.1 °F 6.6 °F 79% 30.43 in 10.0 mi WSW 4.6 mph - N/A   Mostly Cloudy
5:35 PM 10.2 °F 3.8 °F 5.2 °F 80% 30.44 in 10.0 mi WSW 3.5 mph - N/A   Overcast
5:55 PM 8.4 °F - 3.7 °F 81% 30.44 in 10.0 mi Calm Calm - N/A   Overcast
6:15 PM 7.5 °F - 3.0 °F 82% 30.44 in 10.0 mi Calm Calm - N/A   Overcast
6:35 PM 6.1 °F - 2.5 °F 85% 30.45 in 10.0 mi Calm Calm - N/A   Mostly Cloudy
6:55 PM 5.4 °F - 1.6 °F 84% 30.46 in 10.0 mi Calm Calm - N/A   Mostly Cloudy
7:15 PM 2.3 °F - -1.1 °F 86% 30.46 in 10.0 mi Calm Calm - N/A   Mostly Cloudy
7:35 PM -0.4 °F - -4.0 °F 85% 30.46 in 5.0 mi Calm Calm - N/A   Mostly Cloudy
7:55 PM -0.2 °F - -3.8 °F 85% 30.47 in 7.0 mi Calm Calm - N/A   Scattered Clouds
8:15 PM 0.5 °F - -3.1 °F 85% 30.48 in 7.0 mi Calm Calm - N/A   Scattered Clouds
8:35 PM -0.4 °F - -4.0 °F 85% 30.48 in 7.0 mi Calm Calm - N/A   Scattered Clouds
8:55 PM -1.8 °F - -5.6 °F 84% 30.48 in 7.0 mi Calm Calm - N/A   Clear
9:15 PM -2.9 °F - -6.9 °F 83% 30.49 in 7.0 mi Calm Calm - N/A   Clear
9:35 PM -2.7 °F - -6.5 °F 84% 30.49 in 7.0 mi Calm Calm - N/A   Clear
9:55 PM -3.8 °F - -8.0 °F 82% 30.49 in 7.0 mi Calm Calm - N/A   Clear
10:15 PM -3.8 °F - -7.8 °F 83% 30.49 in 5.0 mi Calm Calm - N/A   Clear
10:35 PM -4.7 °F - -9.2 °F 81% 30.49 in 5.0 mi Calm Calm - N/A   Clear
10:55 PM -3.3 °F - -7.2 °F 83% 30.49 in 7.0 mi Calm Calm - N/A   Clear
11:15 PM -7.2 °F - -11.9 °F 80% 30.49 in 10.0 mi Calm Calm - N/A   Clear
11:35 PM -4.9 °F - -8.9 °F 83% 30.49 in 7.0 mi Calm Calm - N/A   Clear
11:55 PM -8.3 °F - -13.5 °F 78% 30.49 in 7.0 mi Calm Calm - N/A   Clear